| time (UTC) | temp F | wind direction | speed MPH | gust MPH | rain 1hr in | rain 24hr in | rain mn in | humidity % | barometer mb |
| 20260504223007 | 83 | 267 | 17.0 | 33.0 | 0.00 | 0.00 | 0.00 | 15 | 1005.0 |
| 20260504221505 | 84 | 283 | 19.0 | 32.0 | 0.00 | 0.00 | 0.00 | 15 | 1005.3 |
| 20260504220002 | 84 | 309 | 13.0 | 23.0 | 0.00 | 0.00 | 0.00 | 14 | 1005.7 |
| 20260504214600 | 83 | 253 | 11.0 | 23.0 | 0.00 | 0.00 | 0.00 | 14 | 1005.9 |
| 20260504213102 | 83 | 245 | 14.0 | 28.0 | 0.00 | 0.00 | 0.00 | 14 | 1006.2 |
| 20260504211556 | 83 | 296 | 16.0 | 27.0 | 0.00 | 0.00 | 0.00 | 14 | 1006.3 |
| 20260504210051 | 83 | 234 | 13.0 | 24.0 | 0.00 | 0.00 | 0.00 | 14 | 1006.4 |
| 20260504204548 | 82 | 296 | 22.0 | 31.0 | 0.00 | 0.00 | 0.00 | 15 | 1007.0 |
| 20260504203048 | 82 | 254 | 12.0 | 21.0 | 0.00 | 0.00 | 0.00 | 15 | 1006.9 |
| 20260504201543 | 82 | 259 | 13.0 | 23.0 | 0.00 | 0.00 | 0.00 | 17 | 1007.1 |
| 20260504200048 | 81 | 311 | 17.0 | 24.0 | 0.00 | 0.00 | 0.00 | 18 | 1007.5 |
| 20260504194542 | 80 | 315 | 14.0 | 31.0 | 0.00 | 0.00 | 0.00 | 20 | 1008.0 |
| 20260504193037 | 80 | 310 | 16.0 | 25.0 | 0.00 | 0.00 | 0.00 | 21 | 1008.2 |
| 20260504191549 | 80 | 292 | 13.0 | 19.0 | 0.00 | 0.00 | 0.00 | 20 | 1008.2 |
| 20260504190032 | 79 | 309 | 17.0 | 22.0 | 0.00 | 0.00 | 0.00 | 18 | 1008.5 |
| 20260504184541 | 79 | 281 | 12.0 | 22.0 | 0.00 | 0.00 | 0.00 | 20 | 1008.6 |
| 20260504183039 | 79 | 243 | 10.0 | 20.0 | 0.00 | 0.00 | 0.00 | 19 | 1008.7 |
| 20260504181527 | 77 | 290 | 17.0 | 26.0 | 0.00 | 0.00 | 0.00 | 22 | 1009.0 |
| 20260504180022 | 77 | 293 | 16.0 | 30.0 | 0.00 | 0.00 | 0.00 | 22 | 1009.2 |
| 20260504174522 | 77 | 257 | 18.0 | 26.0 | 0.00 | 0.00 | 0.00 | 23 | 1009.4 |
| 20260504173017 | 76 | 315 | 15.0 | 26.0 | 0.00 | 0.00 | 0.00 | 23 | 1009.2 |
| 20260504171515 | 76 | 262 | 13.0 | 21.0 | 0.00 | 0.00 | 0.00 | 24 | 1009.6 |
| 20260504081501 | 69 | 161 | 2.0 | 5.0 | 0.00 | 0.00 | 0.00 | 46 | 1008.3 |
| 20260504044546 | 73 | 62 | 8.0 | 11.0 | 0.00 | 0.00 | 0.00 | 40 | 1009.7 |
| 20260504043039 | 75 | 96 | 8.0 | 10.0 | 0.00 | 0.00 | 0.00 | 35 | 1009.7 |
| 20260504041536 | 76 | 319 | 0.0 | 3.0 | 0.00 | 0.00 | 0.00 | 32 | 1009.7 |
| 20260504040046 | 76 | 319 | 1.0 | 4.0 | 0.00 | 0.00 | 0.00 | 31 | 1009.7 |
| 20260504034553 | 77 | 257 | 2.0 | 3.0 | 0.00 | 0.00 | 0.00 | 31 | 1009.7 |
| 20260504033044 | 77 | 246 | 0.0 | 2.0 | 0.00 | 0.00 | 0.00 | 30 | 1009.3 |
| 20260504031536 | 78 | 246 | 1.0 | 2.0 | 0.00 | 0.00 | 0.00 | 29 | 1009.3 |
| 20260504030043 | 78 | 246 | 0.0 | 3.0 | 0.00 | 0.00 | 0.00 | 28 | 1009.6 |
| 20260504024536 | 78 | 246 | 1.0 | 4.0 | 0.00 | 0.00 | 0.00 | 28 | 1009.6 |
| 20260504023038 | 79 | 246 | 1.0 | 4.0 | 0.00 | 0.00 | 0.00 | 27 | 1009.6 |
| 20260504021534 | 79 | 247 | 1.0 | 5.0 | 0.00 | 0.00 | 0.00 | 27 | 1009.2 |
| 20260504020037 | 79 | 253 | 3.0 | 5.0 | 0.00 | 0.00 | 0.00 | 26 | 1009.1 |
| 20260504014541 | 80 | 284 | 2.0 | 9.0 | 0.00 | 0.00 | 0.00 | 25 | 1009.0 |
| 20260504013033 | 80 | 240 | 5.0 | 12.0 | 0.00 | 0.00 | 0.00 | 25 | 1009.2 |
| 20260504011530 | 80 | 248 | 3.0 | 8.0 | 0.00 | 0.00 | 0.00 | 24 | 1009.1 |
| 20260504010029 | 80 | 234 | 4.0 | 8.0 | 0.00 | 0.00 | 0.00 | 24 | 1009.3 |
| 20260504004532 | 80 | 247 | 8.0 | 12.0 | 0.00 | 0.00 | 0.00 | 23 | 1009.3 |
| 20260504003031 | 81 | 235 | 4.0 | 11.0 | 0.00 | 0.00 | 0.00 | 24 | 1009.5 |
| 20260504001526 | 80 | 220 | 7.0 | 17.0 | 0.00 | 0.00 | 0.00 | 25 | 1009.6 |
| 20260504000023 | 81 | 192 | 5.0 | 8.0 | 0.00 | 0.00 | 0.00 | 29 | 1009.6 |
| 20260503234535 | 80 | 267 | 2.0 | 8.0 | 0.00 | 0.00 | 0.00 | 30 | 1009.9 |
| 20260503233018 | 80 | 203 | 6.0 | 10.0 | 0.00 | 0.00 | 0.00 | 30 | 1010.1 |
| 20260503231517 | 80 | 204 | 4.0 | 12.0 | 0.00 | 0.00 | 0.00 | 31 | 1010.3 |
| 20260503230016 | 80 | 165 | 11.0 | 16.0 | 0.00 | 0.00 | 0.00 | 31 | 1010.5 |
| 20260503224514 | 79 | 202 | 5.0 | 11.0 | 0.00 | 0.00 | 0.00 | 31 | 1010.5 |